Home   Weather   Yverdon-les-Bains   Past weeks

Flag for Switzerland Past Weather in Yverdon-les-Bains, Vaud, Switzerland — Yesterday and Last 2 Weeks

Now
23 °F

Cold.


Feels Like: 11 °F
Forecast: 17 / 22 °F
Wind: 14 mph from Northeast

Location: Payerne

Current Time: Jan 17, 2017 at 6:02:57 am

Latest Report: Jan 17, 2017 at 5:00 am


Visibility: N/A

Pressure: 30.29 "Hg

Humidity: 75%

Dew Point: 16 °F

Location of Yverdon-les-BainsLocation

Past Weather in Yverdon-les-Bains — Graph

°F

Yverdon-les-Bains Temperature Yesterday

Maximum temperature yesterday: 30 °F (at 3:00 pm)
Minimum temperature yesterday: 16 °F (at 4:00 am)
Average temperature yesterday: 23 °F

High & Low Weather Summary for the Past Weeks

 TemperatureHumidityPressure
High43 °F (Jan 13, 1:00 am)100% (Jan 9, 3:00 am)30.72 "Hg (Jan 9, 3:00 am)
Low7 °F (Jan 7, 7:00 am)59% (Jan 5, 1:00 pm)29.59 "Hg (Jan 12, 11:00 pm)
Average29 °F82%30.26 "Hg
* Reported Jan 2 4:00 am — Jan 17 4:00 am, Yverdon-les-Bains, Weather by CustomWeather, © 2017

Note: Actual official high and low records may vary slightly from our data, if they occured in-between our weather recording intervals... More about our weather records

Advertising

Yverdon-les-Bains Weather History for the Previous 24 Hours

Scroll right to see more
 ConditionsComfort  
Time TempWeatherWind HumidityBarometerVisibility
4:00 am
Tue, Jan 17
24 °FCold.13 mph77%30.29 "HgN/A
3:00 am24 °FCold.12 mph75%30.29 "HgN/A
2:00 am24 °FCold.15 mph75%30.29 "HgN/A
1:00 am23 °FPassing clouds.12 mph75%30.29 "Hg16 mi
12:00 am24 °FCold.12 mph72%30.29 "HgN/A
11:00 pm
Mon, Jan 16
24 °FCold.13 mph69%30.29 "HgN/A
10:00 pm25 °FPassing clouds.14 mph65%30.28 "Hg16 mi
9:00 pm24 °FCold.8 mph69%30.27 "HgN/A
8:00 pm24 °FCold.7 mph76%30.27 "HgN/A
7:00 pm25 °FPassing clouds.8 mph76%30.25 "Hg16 mi
6:00 pm27 °FChilly.9 mph68%30.24 "HgN/A
5:00 pm27 °FChilly.8 mph69%30.23 "HgN/A
4:00 pm28 °FChilly.9 mph68%30.22 "HgN/A
3:00 pm30 °FChilly.12 mph59%30.21 "HgN/A
2:00 pm29 °FChilly.8 mph70%30.20 "HgN/A
1:00 pm26 °FScattered clouds.6 mph78%30.23 "Hg13 mi
12:00 pm24 °FCold.2 mph82%30.25 "HgN/A
11:00 am21 °FCold.1 mph78%30.27 "HgN/A
10:00 am19 °FPassing clouds.1 mph86%30.27 "Hg12 mi
9:00 am16 °FCold.1 mph87%30.27 "HgN/A
8:00 am18 °FCold.2 mph91%30.25 "HgN/A
7:00 am18 °FPassing clouds.2 mph90%30.24 "Hg9 mi
6:00 am21 °FCold.3 mph83%30.22 "HgN/A
Weather by CustomWeather, © 2017

See weather overviewHow to use our weather pages